St.-Hubert, Quebec

12:16 AM EDT on May 26, 2017 (GMT -0400)
St.-Hubert

Weather History for CYHU - January, 2014

Change the Weather History Date:

Sunday, January 12, 2014

  Actual Average Record
Temperature  
Mean Temperature 36 °F -  
Max Temperature 37 °F 23 °F 42 °F (2013)
Min Temperature 33 °F 6 °F -7 °F (1999)
Degree Days  
Heating Degree Days 29    
Moisture  
Dew Point 32 °F    
Average Humidity 78    
Maximum Humidity 87    
Minimum Humidity 64    
Precipitation  
Precipitation 0.00 in 0.09 in - ()
Sea Level Pressure  
Sea Level Pressure 29.44 in    
Wind  
Wind Speed 22 mph ()    
Max Wind Speed 32 mph    
Max Gust Speed 44 mph    
Visibility 9.1 miles    
Events Rain    
Averages and records for this station are not official NWS values.
T = Trace of Precipitation, MM = Missing Value Source: Averaged Metar Reports

Daily Weather History Graph

Daily Weather History Graph

Search for Another Location

Airport or City:

Trip Planner

Search our weather history database for the weather conditions in past years. The results will help you decide how hot, cold, wet, or windy it might be!

Date:

Astronomy

Jan. 12, 2014 Rise Set
Actual Time 7:31 AM EST 4:32 PM EST
Civil Twilight 6:58 AM EST 5:06 PM EST
Nautical Twilight 6:21 AM EST 5:43 PM EST
Astronomical Twilight 5:45 AM EST 6:18 PM EST
Moon 1:59 PM EST (1/12) 4:26 AM EST (1/12)
Length of Visible Light 10h 08m
Length of Day
9h 01m
Waxing Gibbous, 89% of the Moon is Illuminated
Jan 12
Waxing Gibbous
Jan 15
Full
Jan 24
Last Quarter
Jan 30
New
Feb 6
First Quarter

Hourly Weather History & Observations

Time (EST) Temp. Windchill Dew Point Humidity Pressure Visibility Wind Dir Wind Speed Gust Speed Precip Events Conditions
12:00 AM 42.8 °F 32.7 °F 39.2 °F 87% 29.13 in 9.0 mi WSW 27.6 mph 40.3 mph N/A   Overcast
12:26 AM 41.0 °F 29.8 °F 37.4 °F 87% 29.14 in 9.0 mi WSW 29.9 mph 41.4 mph N/A   Mostly Cloudy
12:55 AM 41.0 °F 30.0 °F 37.4 °F 87% 29.15 in 9.0 mi WSW 28.8 mph 36.8 mph N/A   Mostly Cloudy
12:56 AM 41.0 °F 30.2 °F 37.4 °F 87% 29.16 in 9.0 mi WSW 27.6 mph 36.8 mph N/A   Mostly Cloudy
12:57 AM 41.0 °F 30.7 °F 37.4 °F 87% 29.16 in 9.0 mi WSW 25.3 mph 36.8 mph N/A   Mostly Cloudy
1:00 AM 41 °F - 37 °F 79% 29.16 in 10 mi WSW 28.8 mph - -   Clear
1:00 AM 41.0 °F 29.7 °F 37.4 °F 87% 29.16 in 9.0 mi WSW 31.1 mph 40.3 mph N/A   Mostly Cloudy
1:31 AM 41.0 °F 29.7 °F 35.6 °F 81% 29.17 in 9.0 mi WSW 31.1 mph 43.7 mph N/A   Overcast
2:00 AM 39.2 °F 27.4 °F 33.8 °F 81% 29.18 in 9.0 mi WSW 29.9 mph 42.6 mph N/A   Overcast
2:28 AM 39.2 °F 27.6 °F 33.8 °F 81% 29.20 in 9.0 mi WSW 28.8 mph 36.8 mph N/A Rain Light Rain
2:38 AM 39.2 °F 27.0 °F 33.8 °F 81% 29.20 in 9.0 mi WSW 32.2 mph 39.1 mph N/A   Mostly Cloudy
2:56 AM 39.2 °F 28.0 °F 33.8 °F 81% 29.22 in 9.0 mi WSW 26.5 mph 38.0 mph N/A   Mostly Cloudy
3:00 AM 39.2 °F 28.3 °F 33.8 °F 81% 29.22 in 9.0 mi WSW 25.3 mph 36.8 mph N/A   Mostly Cloudy
4:00 AM 39.2 °F 27.2 °F 32.0 °F 75% 29.26 in 9.0 mi SW 31.1 mph 39.1 mph N/A   Overcast
4:11 AM 39.2 °F 28.5 °F 32.0 °F 75% 29.26 in 9.0 mi WSW 24.2 mph 40.3 mph N/A   Overcast
4:17 AM 37.4 °F 25.4 °F 32.0 °F 81% 29.27 in 9.0 mi WSW 27.6 mph 40.3 mph N/A   Overcast
4:18 AM 37.4 °F 26.1 °F 32.0 °F 81% 29.27 in 9.0 mi WSW 24.2 mph 36.8 mph N/A   Overcast
4:29 AM 37.4 °F 25.4 °F 32.0 °F 81% 29.27 in 9.0 mi WSW 27.6 mph 36.8 mph N/A   Overcast
5:00 AM 37.4 °F 25.9 °F 32.0 °F 81% 29.29 in 9.0 mi WSW 25.3 mph 36.8 mph N/A   Overcast
6:00 AM 37.4 °F 26.1 °F 32.0 °F 81% 29.31 in 9.0 mi WSW 24.2 mph 31.1 mph N/A   Overcast
7:00 AM 37 °F - 31 °F 73% 29.36 in 10 mi WSW 18.4 mph - -   Overcast
7:00 AM 37.4 °F 27.5 °F 32.0 °F 81% 29.36 in 9.0 mi WSW 18.4 mph 24.2 mph N/A   Overcast
7:16 AM 37.4 °F 26.4 °F 30.2 °F 75% 29.37 in 9.0 mi WSW 23.0 mph 32.2 mph N/A   Mostly Cloudy
7:17 AM 37.4 °F 26.4 °F 30.2 °F 75% 29.38 in 9.0 mi WSW 23.0 mph 32.2 mph N/A   Mostly Cloudy
7:21 AM 37.4 °F 25.6 °F 30.2 °F 75% 29.38 in 9.0 mi WSW 26.5 mph - N/A   Mostly Cloudy
7:29 AM 37.4 °F 26.9 °F 30.2 °F 75% 29.39 in 9.0 mi West 20.7 mph 35.7 mph N/A   Overcast
7:31 AM 37.4 °F 26.6 °F 32.0 °F 81% 29.39 in 9.0 mi West 21.9 mph 35.7 mph N/A   Mostly Cloudy
7:52 AM 37.4 °F 26.1 °F 30.2 °F 75% 29.40 in 9.0 mi West 24.2 mph 32.2 mph N/A   Overcast
8:00 AM 37.4 °F 26.9 °F 30.2 °F 75% 29.42 in 9.0 mi West 20.7 mph 31.1 mph N/A   Overcast
8:30 AM 37.4 °F 27.2 °F 30.2 °F 75% 29.45 in 9.0 mi West 19.6 mph 27.6 mph N/A   Overcast
9:00 AM 37.4 °F 27.8 °F 30.2 °F 75% 29.48 in 9.0 mi West 17.3 mph 25.3 mph N/A   Overcast
10:00 AM 37.4 °F 27.8 °F 30.2 °F 75% 29.54 in 9.0 mi West 17.3 mph 26.5 mph N/A   Overcast
11:00 AM 35.6 °F 27.5 °F 30.2 °F 81% 29.56 in 9.0 mi WSW 11.5 mph - N/A   Overcast
11:12 AM 35.6 °F 26.6 °F 30.2 °F 81% 29.56 in 9.0 mi WSW 13.8 mph - N/A   Overcast
11:18 AM 35.6 °F 25.2 °F 32.0 °F 87% 29.55 in 9.0 mi WSW 18.4 mph - N/A Rain Light Rain
12:00 PM 35.6 °F 25.5 °F 32.0 °F 87% 29.56 in 8.0 mi WSW 17.3 mph - N/A Rain Light Rain
12:42 PM 35.6 °F 24.8 °F 32.0 °F 87% 29.56 in 9.0 mi West 19.6 mph - N/A   Overcast
12:53 PM 35.6 °F 24.8 °F 32.0 °F 87% 29.56 in 9.0 mi WSW 19.6 mph 26.5 mph N/A   Overcast
1:00 PM 36 °F - 32 °F 78% 29.57 in 10 mi WSW 18.4 mph - -   Overcast
1:00 PM 35.6 °F 25.2 °F 32.0 °F 87% 29.57 in 9.0 mi WSW 18.4 mph - N/A   Overcast
1:55 PM 37.4 °F 27.5 °F 30.2 °F 75% 29.58 in 9.0 mi WSW 18.4 mph 27.6 mph N/A   Overcast
2:00 PM 37.4 °F 26.6 °F 30.2 °F 75% 29.58 in 9.0 mi WSW 21.9 mph 27.6 mph N/A   Overcast
2:04 PM 37.4 °F 26.4 °F 30.2 °F 75% 29.59 in 9.0 mi WSW 23.0 mph - N/A   Overcast
3:00 PM 35.6 °F 24.2 °F 30.2 °F 81% 29.63 in 9.0 mi West 21.9 mph 32.2 mph N/A   Overcast
4:00 PM 37.4 °F 27.5 °F 28.4 °F 70% 29.67 in 9.0 mi West 18.4 mph 29.9 mph N/A   Overcast
5:00 PM 35.6 °F 24.5 °F 26.6 °F 70% 29.72 in 9.0 mi West 20.7 mph - N/A   Mostly Cloudy
6:00 PM 35.6 °F 24.0 °F 26.6 °F 70% 29.77 in 9.0 mi West 23.0 mph - N/A   Mostly Cloudy
7:00 PM 35 °F - 27 °F 64% 29.81 in 10 mi West 17.3 mph - -  
7:00 PM 35.6 °F 24.8 °F 26.6 °F 70% 29.81 in 9.0 mi WSW 19.6 mph - N/A   Mostly Cloudy
8:00 PM 35.6 °F 27.1 °F 26.6 °F 70% 29.83 in 9.0 mi West 12.7 mph 24.2 mph N/A   Overcast
9:00 PM 35.6 °F 27.1 °F 26.6 °F 70% 29.86 in 9.0 mi West 12.7 mph 19.6 mph N/A   Overcast
10:00 PM 35.6 °F 27.1 °F 24.8 °F 65% 29.89 in 9.0 mi West 12.7 mph 19.6 mph N/A   Overcast
11:00 PM 33.8 °F 25.8 °F 24.8 °F 70% 29.90 in 9.0 mi SW 10.4 mph - N/A   Overcast